H1 CPF 2 NER 2022 12 1 9 335 01 glonass129 H2 1106402 9129 37868 2022 12 1 0 0 0 2022 12 4 23 45 0 900 1 1 0 0 0 1 H9 10 0 59914 0.00000 0 16088158.729 19555643.053 3342476.228 10 0 59914 900.00000 0 15771093.924 19023284.995 6478390.422 10 0 59914 1800.00000 0 15131766.505 18267213.603 9489007.630 10 0 59914 2700.00000 0 14154102.523 17342345.949 12316154.496 10 0 59914 3600.00000 0 12834558.977 16307392.842 14905221.113 10 0 59914 4500.00000 0 11182506.248 15222302.897 17206198.938 10 0 59914 5400.00000 0 9220082.461 14145675.245 19174630.482 10 0 59914 6300.00000 0 6981525.048 13132247.908 20772454.088 10 0 59914 7200.00000 0 4512006.063 12230565.445 21968728.876 10 0 59914 8100.00000 0 1866017.720 11480922.067 22740227.162 10 0 59914 9000.00000 0 -894627.247 10913665.027 23071883.731 10 0 59914 9900.00000 0 -3703100.056 10547928.618 22957093.585 10 0 59914 10800.00000 0 -6490072.471 10390851.589 22397852.224 10 0 59914 11700.00000 0 -9186343.901 10437311.259 21404734.891 10 0 59914 12600.00000 0 -11725472.255 10670186.625 19996713.833 10 0 59914 13500.00000 0 -14046301.212 11061141.019 18200815.282 10 0 59914 14400.00000 0 -16095279.981 11571893.404 16051620.662 10 0 59914 15300.00000 0 -17828479.300 12155926.833 13590619.488 10 0 59914 16200.00000 0 -19213219.342 12760563.904 10865424.362 10 0 59914 17100.00000 0 -20229240.580 13329323.032 7928861.429 10 0 59914 18000.00000 0 -20869367.239 13804456.712 4837952.685 10 0 59914 18900.00000 0 -21139634.029 14129564.318 1652809.156 10 0 59914 19800.00000 0 -21058869.464 14252167.946 -1564543.638 10 0 59914 20700.00000 0 -20657752.187 14126140.506 -4751384.300 10 0 59914 21600.00000 0 -19977379.590 13713880.926 -7845533.395 10 0 59914 22500.00000 0 -19067409.188 12988141.614 -10786584.662 10 0 59914 23400.00000 0 -17983851.998 11933428.070 -13517103.551 10 0 59914 24300.00000 0 -16786612.445 10546908.747 -15983767.678 10 0 59914 25200.00000 0 -15536880.480 8838794.458 -18138425.006 10 0 59914 26100.00000 0 -14294487.971 6832169.620 -19939047.414 10 0 59914 27000.00000 0 -13115342.868 4562281.327 -21350559.828 10 0 59914 27900.00000 0 -12049050.982 2075315.664 -22345528.049 10 0 59914 28800.00000 0 -11136826.769 -573287.219 -22904691.604 10 0 59914 29700.00000 0 -10409781.590 -3320908.180 -23017331.580 10 0 59914 30600.00000 0 -9887661.286 -6100126.801 -22681466.997 10 0 59914 31500.00000 0 -9578085.254 -8841301.520 -21903876.974 10 0 59914 32400.00000 0 -9476317.492 -11475243.990 -20699949.579 10 0 59914 33300.00000 0 -9565577.168 -13935875.887 -19093361.740 10 0 59914 34200.00000 0 -9817873.390 -16162757.587 -17115597.925 10 0 59914 35100.00000 0 -10195326.582 -18103384.150 -14805318.373 10 0 59914 36000.00000 0 -10651918.616 -19715154.272 -12207590.433 10 0 59914 36900.00000 0 -11135596.006 -20966931.914 -9372999.100 10 0 59914 37800.00000 0 -11590636.041 -21840137.788 -6356654.928 10 0 59914 38700.00000 0 -11960175.156 -22329327.712 -3217119.186 10 0 59914 39600.00000 0 -12188792.559 -22442236.306 -15267.552 10 0 59914 40500.00000 0 -12225040.323 -22199286.793 3186885.587 10 0 59914 41400.00000 0 -12023813.881 -21632589.690 6327379.772 10 0 59914 42300.00000 0 -11548463.951 -20784474.071 9345495.458 10 0 59914 43200.00000 0 -10772561.976 -19705614.103 12182913.371 10 0 59914 44100.00000 0 -9681245.719 -18452829.754 14784825.084 10 0 59914 45000.00000 0 -8272089.160 -17086653.589 17100974.704 10 0 59914 45900.00000 0 -6555460.307 -15668764.626 19086613.215 10 0 59914 46800.00000 0 -4554351.470 -14259395.275 20703348.671 10 0 59914 47700.00000 0 -2303687.971 -12914818.187 21919877.264 10 0 59914 48600.00000 0 150857.697 -11685016.303 22712582.459 10 0 59914 49500.00000 0 2754499.284 -10611631.865 23065991.462 10 0 59914 50400.00000 0 5445352.583 -9726278.883 22973080.568 10 0 59914 51300.00000 0 8156752.854 -9049288.799 22435423.257 10 0 59914 52200.00000 0 10819780.642 -8588941.670 21463177.415 10 0 59914 53100.00000 0 13365893.666 -8341215.550 20074910.534 10 0 59914 54000.00000 0 15729557.667 -8290065.598 18297264.499 10 0 59914 54900.00000 0 17850768.286 -8408222.676 16164464.295 10 0 59914 55800.00000 0 19677359.641 -8658479.574 13717677.971 10 0 59914 56700.00000 0 21167003.283 -8995412.363 11004238.107 10 0 59914 57600.00000 0 22288813.242 -9367465.677 8076738.014 10 0 59914 58500.00000 0 23024488.632 -9719314.721 4992018.937 10 0 59914 59400.00000 0 23368944.271 -9994404.324 1810067.120 10 0 59914 60300.00000 0 23330401.167 -10137556.911 -1407157.899 10 0 59914 61200.00000 0 22929931.503 -10097537.600 -4596940.296 10 0 59914 62100.00000 0 22200476.296 -9829465.622 -7697045.401 10 0 59914 63000.00000 0 21185376.647 -9296967.359 -10646951.822 10 0 59914 63900.00000 0 19936480.754 -8473977.010 -13389052.151 10 0 59914 64800.00000 0 18511907.425 -7346105.877 -15869796.865 10 0 59914 65700.00000 0 16973561.812 -5911519.804 -18040757.103 10 0 59914 66600.00000 0 15384509.892 -4181285.694 -19859583.901 10 0 59914 67500.00000 0 13806324.160 -2179170.966 -21290843.911 10 0 59914 68400.00000 0 12296514.028 59096.476 -22306714.560 10 0 59914 69300.00000 0 10906150.358 2487076.892 -22887524.830 10 0 59914 70200.00000 0 9677784.743 5049323.322 -23022131.413 10 0 59914 71100.00000 0 8643750.965 7683470.252 -22708123.617 10 0 59914 72000.00000 0 7824919.264 10322618.092 -21951854.095 10 0 59914 72900.00000 0 7229954.280 12897913.169 -20768296.108 10 0 59914 73800.00000 0 6855105.741 15341215.040 -19180731.517 10 0 59914 74700.00000 0 6684538.264 17587739.607 -17220277.087 10 0 59914 75600.00000 0 6691183.650 19578568.162 -14925259.702 10 0 59914 76500.00000 0 6838077.149 21262918.556 -12340453.960 10 0 59914 77400.00000 0 7080118.987 22600085.052 -9516198.109 10 0 59914 78300.00000 0 7366184.840 23560967.759 -6507406.448 10 0 59914 79200.00000 0 7641494.809 24129129.984 -3372497.955 10 0 59914 80100.00000 0 7850140.023 24301341.646 -172262.445 10 0 59914 81000.00000 0 7937660.025 24087588.487 3031313.747 10 0 59914 81900.00000 0 7853562.432 23510548.897 6176240.096 10 0 59914 82800.00000 0 7553679.305 22604562.063 9201709.628 10 0 59914 83700.00000 0 7002261.856 21414131.981 12049260.080 10 0 59914 84600.00000 0 6173726.244 19992030.535 14663887.275 10 0 59914 85500.00000 0 5053977.871 18397079.024 16995090.560 10 0 59915 0.00000 0 3641259.117 16691700.338 18997831.600 10 0 59915 900.00000 0 1946484.004 14939341.880 20633390.664 10 0 59915 1800.00000 0 -6952.997 13201877.521 21870102.697 10 0 59915 2700.00000 0 -2183890.057 11537092.081 22683963.893 10 0 59915 3600.00000 0 -4538603.561 9996353.670 23059095.126 10 0 59915 4500.00000 0 -7016459.214 8622568.465 22988054.815 10 0 59915 5400.00000 0 -9555942.882 7448502.118 22471994.820 10 0 59915 6300.00000 0 -12090989.811 6495537.157 21520655.565 10 0 59915 7200.00000 0 -14553518.165 5772918.202 20152199.159 10 0 59915 8100.00000 0 -16876064.059 5277517.043 18392881.980 10 0 59915 9000.00000 0 -18994410.282 4994128.384 16276570.902 10 0 59915 9900.00000 0 -20850100.180 4896285.203 13844110.376 10 0 59915 10800.00000 0 -22392732.119 4947560.860 11142550.459 10 0 59915 11700.00000 0 -23581938.077 5103304.413 8224248.854 10 0 59915 12600.00000 0 -24388962.252 5312736.910 5145863.095 10 0 59915 13500.00000 0 -24797771.836 5521320.433 1967251.606 10 0 59915 14400.00000 0 -24805651.339 5673299.334 -1249695.119 10 0 59915 15300.00000 0 -24423253.582 5714305.000 -4442269.856 10 0 59915 16200.00000 0 -23674103.678 5593911.961 -7548185.666 10 0 59915 17100.00000 0 -22593575.821 5268034.708 -10506808.890 10 0 59915 18000.00000 0 -21227385.673 4701060.936 -13260362.014 10 0 59915 18900.00000 0 -19629662.191 3867628.082 -15755070.929 10 0 59915 19800.00000 0 -17860681.079 2753965.278 -17942232.263 10 0 59915 20700.00000 0 -15984356.793 1358741.747 -19779178.193 10 0 59915 21600.00000 0 -14065600.287 -306616.018 -21230118.679 10 0 59915 22500.00000 0 -12167655.304 -2218152.836 -22266843.927 10 0 59915 23400.00000 0 -10349526.561 -4340150.086 -22869273.059 10 0 59915 24300.00000 0 -8663608.723 -6626395.525 -23025838.594 10 0 59915 25200.00000 0 -7153615.908 -9021903.963 -22733699.918 10 0 59915 26100.00000 0 -5852898.124 -11465015.975 -21998782.605 10 0 59915 27000.00000 0 -4783213.957 -13889786.026 -20835644.141 10 0 59915 27900.00000 0 -3954009.058 -16228559.500 -19267170.064 10 0 59915 28800.00000 0 -3362228.222 -18414630.402 -17324107.923 10 0 59915 29700.00000 0 -2992666.085 -20384868.702 -15044449.558 10 0 59915 30600.00000 0 -2818838.720 -22082207.990 -12472674.984 10 0 59915 31500.00000 0 -2804336.602 -23457890.364 -9658873.808 10 0 59915 32400.00000 0 -2904599.411 -24473376.155 -6657762.129 10 0 59915 33300.00000 0 -3069035.794 -25101840.466 -3527614.688 10 0 59915 34200.00000 0 -3243397.274 -25329195.918 -329133.477 10 0 59915 35100.00000 0 -3372305.312 -25154601.033 2875725.215 10 0 59915 36000.00000 0 -3401824.733 -24590435.030 6024942.829 10 0 59915 36900.00000 0 -3281975.335 -23661741.899 9057627.056 10 0 59915 37800.00000 0 -2969076.529 -22405168.403 11915174.804 10 0 59915 38700.00000 0 -2427827.174 -20867441.178 14542388.363 10 0 59915 39600.00000 0 -1633034.047 -19103446.784 16888524.546 10 0 59915 40500.00000 0 -570916.985 -17173994.354 18908258.212 10 0 59915 41400.00000 0 760063.857 -15143353.074 20562543.197 10 0 59915 42300.00000 0 2348893.594 -13076665.598 21819355.503 10 0 59915 43200.00000 0 4172215.260 -11037343.247 22654305.725 10 0 59915 44100.00000 0 6195062.392 -9084549.367 23051109.809 10 0 59915 45000.00000 0 8372083.266 -7270873.777 23001909.411 10 0 59915 45900.00000 0 10649208.599 -5640293.425 22507435.555 10 0 59915 46800.00000 0 12965696.298 -4226503.043 21577011.667 10 0 59915 47700.00000 0 15256471.064 -3051684.803 20228394.601 10 0 59915 48600.00000 0 17454664.163 -2125768.315 18487455.016 10 0 59915 49500.00000 0 19494249.719 -1446212.389 16387701.111 10 0 59915 50400.00000 0 21312668.966 -998318.723 13969652.808 10 0 59915 51300.00000 0 22853333.498 -756065.515 11280076.299 10 0 59915 52200.00000 0 24067902.580 -683427.125 8371091.929 10 0 59915 53100.00000 0 24918238.051 -736125.230 5299171.351 10 0 59915 54000.00000 0 25377953.148 -863738.050 2124042.612 10 0 59915 54900.00000 0 25433488.158 -1012078.444 -1092475.746 10 0 59915 55800.00000 0 25084665.438 -1125739.466 -4287688.244 10 0 59915 56700.00000 0 24344698.472 -1150698.090 -7399258.965 10 0 59915 57600.00000 0 23239652.974 -1036864.707 -10366445.297 10 0 59915 58500.00000 0 21807381.759 -740467.851 -13131302.823 10 0 59915 59400.00000 0 20095977.947 -226170.395 -15639835.884 10 0 59915 60300.00000 0 18161812.015 531175.086 -17843069.373 10 0 59915 61200.00000 0 16067236.298 1545208.469 -19698019.115 10 0 59915 62100.00000 0 13878054.818 2817239.406 -21168540.587 10 0 59915 63000.00000 0 11660866.242 4335956.027 -22226038.669 10 0 59915 63900.00000 0 9480392.971 6077678.027 -22850024.183 10 0 59915 64800.00000 0 7396909.428 8007143.750 -23028506.680 10 0 59915 65700.00000 0 5463877.784 10078797.903 -22758216.427 10 0 59915 66600.00000 0 3725890.075 12238525.164 -22044652.306 10 0 59915 67500.00000 0 2217001.877 14425756.182 -20901955.973 10 0 59915 68400.00000 0 959525.617 16575856.874 -19352616.131 10 0 59915 69300.00000 0 -36668.193 18622700.254 -17427010.167 10 0 59915 70200.00000 0 -774315.400 20501312.762 -15162793.500 10 0 59915 71100.00000 0 -1268384.528 22150484.384 -12604149.808 10 0 59915 72000.00000 0 -1545183.804 23515233.756 -9800917.918 10 0 59915 72900.00000 0 -1640989.415 24549026.041 -6807613.292 10 0 59915 73800.00000 0 -1600255.337 25215652.126 -3682363.723 10 0 59915 74700.00000 0 -1473482.133 25490692.099 -485780.471 10 0 59915 75600.00000 0 -1314835.943 25362503.632 2720213.249 10 0 59915 76500.00000 0 -1179618.765 24832695.766 5873573.928 10 0 59915 77400.00000 0 -1121696.722 23916069.952 8913326.984 10 0 59915 78300.00000 0 -1190994.266 22640032.211 11780731.482 10 0 59915 79200.00000 0 -1431159.047 21043501.829 14420399.016 10 0 59915 80100.00000 0 -1877494.729 19175362.472 16781346.539 10 0 59915 81000.00000 0 -2555247.782 17092519.980 18817964.411 10 0 59915 81900.00000 0 -3478319.579 14857646.797 20490882.638 10 0 59915 82800.00000 0 -4648457.670 12536705.451 21767720.073 10 0 59915 83700.00000 0 -6054960.632 10196352.225 22623703.418 10 0 59915 84600.00000 0 -7674910.079 7901326.753 23042145.059 10 0 59915 85500.00000 0 -9473921.965 5711933.982 23014770.868 10 0 59916 0.00000 0 -11407388.124 3681721.333 22541891.634 10 0 59916 900.00000 0 -13422160.188 1855444.995 21632413.738 10 0 59916 1800.00000 0 -15458605.900 267411.681 20303688.318 10 0 59916 2700.00000 0 -17452958.436 -1059739.217 18581199.276 10 0 59916 3600.00000 0 -19339860.522 -2115759.364 16498094.563 10 0 59916 4500.00000 0 -21054999.877 -2902991.324 14094567.495 10 0 59916 5400.00000 0 -22537726.630 -3436035.023 11417097.908 10 0 59916 6300.00000 0 -23733543.261 -3740893.720 8517565.944 10 0 59916 7200.00000 0 -24596361.851 -3853634.389 5452254.293 10 0 59916 8100.00000 0 -25090432.413 -3818618.272 2280757.386 10 0 59916 9000.00000 0 -25191859.174 -3686376.146 -935181.486 10 0 59916 9900.00000 0 -24889638.644 -3511218.562 -4132881.894 10 0 59916 10800.00000 0 -24186173.405 -3348683.334 -7249962.198 10 0 59916 11700.00000 0 -23097237.890 -3252930.171 -10225573.990 10 0 59916 12600.00000 0 -21651396.013 -3274195.062 -13001608.980 10 0 59916 13500.00000 0 -19888894.244 -3456414.857 -15523852.777 10 0 59916 14400.00000 0 -17860076.500 -3835125.264 -17743061.094 10 0 59916 15300.00000 0 -15623387.978 -4435723.695 -19615935.570 10 0 59916 16200.00000 0 -13243052.793 -5272172.516 -21105978.921 10 0 59916 17100.00000 0 -10786524.140 -6346199.060 -22184211.878 10 0 59916 18000.00000 0 -8321815.320 -7647027.129 -22829737.573 10 0 59916 18900.00000 0 -5914824.571 -9151651.626 -23030142.614 10 0 59916 19800.00000 0 -3626766.379 -10825644.640 -22781727.632 10 0 59916 20700.00000 0 -1511816.953 -12624458.378 -22089563.807 10 0 59916 21600.00000 0 384928.325 -14495169.339 -20967375.542 10 0 59916 22500.00000 0 2029101.374 -16378589.533 -19437252.949 10 0 59916 23400.00000 0 3398244.939 -18211655.150 -17529201.243 10 0 59916 24300.00000 0 4482486.292 -19929991.816 -15280537.222 10 0 59916 25200.00000 0 5284675.950 -21470548.521 -12735145.898 10 0 59916 26100.00000 0 5819988.794 -22774189.762 -9942612.945 10 0 59916 27000.00000 0 6115007.590 -23788137.802 -6957250.780 10 0 59916 27900.00000 0 6206330.384 -24468163.563 -3837037.879 10 0 59916 28800.00000 0 6138762.831 -24780435.583 -642492.441 10 0 59916 29700.00000 0 5963173.478 -24702951.129 2564497.650 10 0 59916 30600.00000 0 5734103.554 -24226491.094 5721866.114 10 0 59916 31500.00000 0 5507232.474 -23355060.280 8768558.192 10 0 59916 32400.00000 0 5336805.709 -22105795.924 11645697.100 10 0 59916 33300.00000 0 5273132.730 -20508349.185 14297705.636 10 0 59916 34200.00000 0 5360259.345 -18603765.808 16673362.657 10 0 59916 35100.00000 0 5633911.268 -16442912.365 18726775.637 10 0 59916 36000.00000 0 6119794.353 -14084512.770 20418252.189 10 0 59916 36900.00000 0 6832322.261 -11592875.335 21715055.225 10 0 59916 37800.00000 0 7773824.802 -9035402.926 22592028.528 10 0 59916 38700.00000 0 8934270.758 -6479987.359 23032081.638 10 0 59916 39600.00000 0 10291518.045 -3992393.969 23026525.103 10 0 59916 40500.00000 0 11812082.728 -1633742.656 22575249.554 10 0 59916 41400.00000 0 13452397.237 541811.964 21686744.455 10 0 59916 42300.00000 0 15160507.968 2489106.232 20377954.902 10 0 59916 43200.00000 0 16878144.166 4173615.647 18673977.525 10 0 59916 44100.00000 0 18543074.194 5572657.153 16607599.281 10 0 59916 45000.00000 0 20091652.671 6676094.996 14218685.881 10 0 59916 45900.00000 0 21461453.189 7486519.901 11553429.529 10 0 59916 46800.00000 0 22593876.734 8018893.062 8663468.601 10 0 59916 47700.00000 0 23436625.918 8299668.798 5604894.959 10 0 59916 48600.00000 0 23945939.799 8365431.986 2437167.247 10 0 59916 49500.00000 0 24088493.332 8261107.251 -778048.925 10 0 59916 50400.00000 0 23842879.078 8037815.661 -3978090.831 10 0 59916 51300.00000 0 23200606.165 7750470.318 -7100533.881 10 0 59916 52200.00000 0 22166571.924 7455214.022 -10084426.698 10 0 59916 53100.00000 0 20758984.224 7206809.460 -12871499.886 10 0 59916 54000.00000 0 19008736.250 7056094.784 -15407322.970 10 0 59916 54900.00000 0 16958259.149 7047614.860 -17642384.944 10 0 59916 55800.00000 0 14659900.690 7217530.832 -19533075.537 10 0 59916 56700.00000 0 12173898.496 7591898.627 -21042546.749 10 0 59916 57600.00000 0 9566033.789 8185390.770 -22141436.990 10 0 59916 58500.00000 0 6905065.205 9000516.607 -22808443.282 10 0 59916 59400.00000 0 4260051.222 10027374.237 -23030730.581 10 0 59916 60300.00000 0 1697674.046 11243944.520 -22804170.839 10 0 59916 61200.00000 0 -720322.674 12616914.068 -22133408.088 10 0 59916 62100.00000 0 -2939475.553 14102991.618 -21031749.591 10 0 59916 63000.00000 0 -4914625.686 15650661.246 -19520886.503 10 0 59916 63900.00000 0 -6611542.394 17202297.474 -17630451.019 10 0 59916 64800.00000 0 -8008080.973 18696552.369 -15397420.019 10 0 59916 65700.00000 0 -9094828.847 20070913.595 -12865378.145 10 0 59916 66600.00000 0 -9875216.153 21264325.565 -10083655.855 10 0 59916 67500.00000 0 -10365089.484 22219763.668 -7106360.186 10 0 59916 68400.00000 0 -10591769.779 22886654.035 -3991317.731 10 0 59916 69300.00000 0 -10592636.800 23223038.072 -798950.917 10 0 59916 70200.00000 0 -10413302.013 23197392.201 2408890.509 10 0 59916 71100.00000 0 -10105448.456 22790027.792 5570120.349 10 0 59916 72000.00000 0 -9724429.436 21994014.022 8623606.521 10 0 59916 72900.00000 0 -9326727.441 20815586.213 11510339.199 10 0 59916 73800.00000 0 -8967379.838 19274023.440 14174555.114 10 0 59916 74700.00000 0 -8697478.800 17401000.964 16564797.644 10 0 59916 75600.00000 0 -8561849.463 15239444.321 18634893.841 10 0 59916 76500.00000 0 -8597002.666 12841932.007 20344831.204 10 0 59916 77400.00000 0 -8829447.172 10268711.859 21661518.767 10 0 59916 78300.00000 0 -9274431.587 7585411.662 22559419.200 10 0 59916 79200.00000 0 -9935168.616 4860536.684 23021040.694 10 0 59916 80100.00000 0 -10802574.799 2162855.573 23037279.599 10 0 59916 81000.00000 0 -11855537.929 -441219.442 22607607.166 10 0 59916 81900.00000 0 -13061702.923 -2890151.626 21740096.109 10 0 59916 82800.00000 0 -14378745.632 -5129595.247 20451285.250 10 0 59916 83700.00000 0 -15756083.923 -7114412.583 18765883.173 10 0 59916 84600.00000 0 -17136956.973 -8810309.164 16716314.540 10 0 59916 85500.00000 0 -18460787.868 -10195018.960 14342115.669 10 0 59917 0.00000 0 -19665731.999 -11258989.482 11689189.151 10 0 59917 900.00000 0 -20691305.782 -12005537.687 8808928.512 10 0 59917 1800.00000 0 -21480983.596 -12450467.647 5757232.109 10 0 59917 2700.00000 0 -21984654.965 -12621166.975 2593419.688 10 0 59917 3600.00000 0 -22160835.144 -12555217.788 -620924.085 10 0 59917 4500.00000 0 -21978534.304 -12298581.191 -3823157.523 10 0 59917 5400.00000 0 -21418703.746 -11903432.217 -6950816.461 10 0 59917 6300.00000 0 -20475195.396 -11425737.779 -9942849.894 10 0 59917 7200.00000 0 -19155191.619 -10922681.716 -12740830.588 10 0 59917 8100.00000 0 -17479085.168 -10450047.976 -15290115.105 10 0 59917 9000.00000 0 -15479812.845 -10059675.041 -17540928.599 10 0 59917 9900.00000 0 -13201670.185 -9797091.611 -19449351.412 10 0 59917 10800.00000 0 -10698656.867 -9699435.721 -20978186.903 10 0 59917 11700.00000 0 -8032422.741 -9793746.930 -22097692.674 10 0 59917 12600.00000 0 -5269901.447 -10095704.883 -22786160.541 10 0 59917 13500.00000 0 -2480731.686 -10608868.007 -23030334.078 10 0 59917 14400.00000 0 265425.154 -11324444.306 -22825656.199 10 0 59917 15300.00000 0 2901558.271 -12221603.248 -22176342.886 10 0 59917 16200.00000 0 5365859.906 -13268314.448 -21095282.862 10 0 59917 17100.00000 0 7604050.984 -14422676.477 -19603766.530 10 0 59917 18000.00000 0 9571383.972 -15634678.288 -17731050.936 10 0 59917 18900.00000 0 11234241.195 -16848317.771 -15513770.645 10 0 59917 19800.00000 0 12571264.330 -18003987.091 -12995207.314 10 0 59917 20700.00000 0 13573970.623 -19041023.603 -10224433.407 10 0 59917 21600.00000 0 14246833.279 -19900318.665 -7255347.678 10 0 59917 22500.00000 0 14606825.806 -20526874.674 -4145621.880 10 0 59917 23400.00000 0 14682452.434 -20872203.318 -955579.710 10 0 59917 24300.00000 0 14512307.948 -20896465.099 2252970.122 10 0 59917 25200.00000 0 14143229.504 -20570261.374 5417924.257 10 0 59917 26100.00000 0 13628119.509 -19876004.896 8478075.849 10 0 59917 27000.00000 0 13023531.765 -18808812.537 11374284.335 10 0 59917 27900.00000 0 12387122.336 -17376883.635 14050602.399 10 0 59917 28800.00000 0 11775071.646 -15601348.654 16455339.644 10 0 59917 29700.00000 0 11239585.035 -13515594.374 18542044.086 10 0 59917 30600.00000 0 10826575.400 -11164093.036 20270384.168 10 0 59917 31500.00000 0 10573623.829 -8600782.927 21606915.783 10 0 59917 32400.00000 0 10508302.657 -5887065.824 22525720.904 10 0 59917 33300.00000 0 10646930.563 -3089502.102 23008906.491 10 0 59917 34200.00000 0 10993811.793 -277296.613 23046954.541 10 0 59917 35100.00000 0 11540991.995 2480323.101 22638916.510 10 0 59917 36000.00000 0 12268542.156 5116730.057 21792447.712 10 0 59917 36900.00000 0 13145360.641 7570415.781 20523679.843 10 0 59917 37800.00000 0 14130461.930 9787300.036 18856932.404 10 0 59917 38700.00000 0 15174700.475 11722737.305 16824266.548 10 0 59917 39600.00000 0 16222859.559 13343136.643 14464887.814 10 0 59917 40500.00000 0 17216019.297 14627127.062 11824407.113 10 0 59917 41400.00000 0 18094105.445 15566218.870 8953972.323 10 0 59917 42300.00000 0 18798512.104 16164932.065 5909285.889 10 0 59917 43200.00000 0 19274687.360 16440385.248 2749526.520 10 0 59917 44100.00000 0 19474571.476 16421361.290 -463804.366 10 0 59917 45000.00000 0 19358782.687 16146888.481 -3668088.534 10 0 59917 45900.00000 0 18898455.751 15664396.954 -6800824.719 10 0 59917 46800.00000 0 18076652.818 15027528.842 -9800864.737 10 0 59917 47700.00000 0 16889284.275 14293695.875 -12609625.893 10 0 59917 48600.00000 0 15345498.243 13521489.480 -15172254.011 10 0 59917 49500.00000 0 13467520.289 12768054.963 -17438712.469 10 0 59917 50400.00000 0 11289948.836 12086543.018 -19364774.107 10 0 59917 51300.00000 0 8858535.179 11523748.390 -20912895.337 10 0 59917 52200.00000 0 6228499.311 11118037.212 -22052954.472 10 0 59917 53100.00000 0 3462452.706 10897651.746 -22762839.416 10 0 59917 54000.00000 0 628015.782 10879464.673 -23028873.412 10 0 59917 54900.00000 0 -2204769.475 11068235.383 -22846071.089 10 0 59917 55800.00000 0 -4966122.798 11456398.897 -22218220.739 10 0 59917 56700.00000 0 -7589192.507 12024395.058 -21157792.480 10 0 59917 57600.00000 0 -10012594.770 12741522.517 -19685675.418 10 0 59917 58500.00000 0 -12182719.999 13567279.728 -17830750.433 10 0 59917 59400.00000 0 -14055711.520 14453134.641 -15629308.324 10 0 59917 60300.00000 0 -15599035.918 15344646.946 -13124325.943 10 0 59917 61200.00000 0 -16792581.878 16183852.145 -10364615.650 10 0 59917 62100.00000 0 -17629244.467 16911806.155 -7403865.610 10 0 59917 63000.00000 0 -18114973.471 17471182.856 -4299590.298 10 0 59917 63900.00000 0 -18268286.690 17808815.294 -1112012.173 10 0 59917 64800.00000 0 -18119271.423 17878074.056 2097103.627 10 0 59917 65700.00000 0 -17708118.335 17640983.622 5265639.128 10 0 59917 66600.00000 0 -17083250.956 17069988.742 8332315.255 10 0 59917 67500.00000 0 -16299130.432 16149297.712 11237863.232 10 0 59917 68400.00000 0 -15413828.002 14875747.102 13926154.164 10 0 59917 69300.00000 0 -14486466.744 13259152.247 16345266.278 10 0 59917 70200.00000 0 -13574639.048 11322128.938 18448470.829 10 0 59917 71100.00000 0 -12731906.771 9099393.138 20195119.321 10 0 59917 72000.00000 0 -12005487.397 6636566.823 21551416.406 10 0 59917 72900.00000 0 -11434221.669 3988537.798 22491065.012 10 0 59917 73800.00000 0 -11046906.639 1217439.319 22995772.211 10 0 59917 74700.00000 0 -10861063.228 -1609669.190 23055606.646 10 0 59917 75600.00000 0 -10882189.795 -4423326.972 22669200.596 10 0 59917 76500.00000 0 -11103533.543 -7154300.362 21843792.191 10 0 59917 77400.00000 0 -11506390.563 -9736208.130 20595105.782 10 0 59917 78300.00000 0 -12060923.645 -12108036.744 18947071.123 10 0 59917 79200.00000 0 -12727465.606 -14216442.328 16931384.764 10 0 59917 80100.00000 0 -13458255.507 -16017744.044 14586919.948 10 0 59917 81000.00000 0 -14199536.657 -17479525.698 11958994.268 10 0 59917 81900.00000 0 -14893929.545 -18581777.974 9098507.255 10 0 59917 82800.00000 0 -15482980.438 -19317532.252 6060963.179 10 0 59917 83700.00000 0 -15909778.044 -19692958.112 2905397.005 10 0 59917 84600.00000 0 -16121526.856 -19726919.111 -306775.972 10 0 59917 85500.00000 0 -16071966.697 -19450004.442 -3512963.989 99